Location: Rome
(43.2189°N, 75.4531°W)
Time: 07:11:12
(UTC+00:00)

ISS - Visible Passes

Search period start: 09 December 2022 00:00
Search period end: 19 December 2022 00:00
Orbit: 414 x 420 km, 51.6° (Epoch: 09 December)

Date Brightness Start Highest point End Pass type
(mag) Time Alt. Az. Time Alt. Az. Time Alt. Az.
10 Dec 0.2 22:20:46 10° WSW 22:21:12 10° SW 22:21:39 10° SW visible
15 Dec -0.6 11:49:08 10° S 11:51:30 18° SE 11:53:52 10° E visible
16 Dec -0.1 11:02:31 10° SE 11:03:17 11° SE 11:04:03 10° ESE visible
17 Dec -2.6 11:47:51 10° SW 11:51:05 47° SE 11:54:20 10° ENE visible
18 Dec -1.6 10:59:48 10° SSW 11:02:42 28° SE 11:05:38 10° ENE visible
